Strona główna
METAR-TAF:

METAR-TAF

Lotnisko :

Charlotte, Michigan, Stany Zjednoczone

Szerokość geograficzna: 42-34-28N, Długość geograficzna: 084-48-41W, wysokość: 271 m

Aktualna obserwacja pogody

Raport powstał 23 minut temu, godzina 06:35 UTC
Cisza
Temperatura -13°C
Wilgotność 92%
Ciśnienie 1033 hPa
Widzialność: 16.1 km
bezchmurnie

METAR: KFPK 120635Z AUTO 00000KT 10SM CLR M13/M14 A3050 RMK AO2 T11261142

czas: 01:58 (06:58 UTC)


TAF: brakujący

Obserwacja i prognoza pogody dla ponad 4000 lotnisk (raport METAR i TAF).

Dostępne stacje oznaczono żółtymi i czerwonymi punktami na mapie.

Najedź kursorem aby zobaczyć nazwę stacji.

Kliknij aby zobaczyć obserwacje i prognozy pogody.

Aby zmienić mapę: kliknij na zielony przycisk z czarnym krzyżykiem, aby powiększyć; na zielony przycisk z myślnikiem, aby pomniejszyć; na zielone strzałki, aby przejść do map sąsiednich.


METAR-TAF: